Showing default

EOS-8, 60454

Orbit data source: Space-Track

EOS-8, 60454 is a payload satellite owned by ISRO (IN) in LEO that was launched on Fri, 16 Aug 2024 UTC via an SSLV launch vehicle from the Sirharikota (SRI). Payload-class satellites include a variety of spacecraft equipped with specific instruments for various scientific and technological missions. These include communications satellites like Starlink; space stations such as the ISS; scientific satellites like the Hubble; Earth observation satellites from companies like Planet Labs, Umbra, and HawkEye 360; GPS; miniature CubeSats for education and research; and military/defense satellites.

Loading next visibility...
Identifier
60454, 2024-147A
Orbit
LEO
Country
Flag of ININ / IND
Related business
Manufacturer
ISRO SAC/Banga
Mission
Operational Civil Imaging
Bus & Motor
IMS-1, Unknown motor
Mass
176 kg wet, ~176 kg dry
Launch date (UTC)
2024-08-16 (1 year ago)
Launch vehicle
SSLV
Launch site
Sirharikota (SRI)
Object type
Payload
Rocket body
Debris
Shape & HBR
Box + 2 Pan, 1.5 m
Radar Cross Section
0.935 m², Large (>1 m²)

Expand to show TLE details & history
Last TLE update: 14 hours ago

TLE from 14 hours ago
0 EOS-8
1 60454U 24147A   25260.22416963  .00024166  00000-0  56977-3 0  9991
2 60454  37.3818 337.5384 0003339 351.5994   8.4712 15.41112677 60854
Epoch: 2025-09-17T05:22Z
TLE epoch observation values (Epoch: 2025-09-17T05:22:48.256Z)
Latitude
-0.00001°
Longitude
-99.56587°
Altitude
439.725 km
Speed
7.652 km/s
True Right ascension
22h 30m 09s
True Declination
0° 00' 00"
Sunlit
Object was in full shadow at epoch
Visualization orbit readout
Latitude
Unknown
Longitude
Unknown
Altitude
Unknown
Speed
Unknown
Apparent Right ascension
Unknown
Apparent Declination
Unknown
Sunlit
N/A
Visualization observer readout
Local Sidereal Time
11:47:04
Azimuth
Unknown
Elevation
Unknown
Doppler factor
Unknown
Orbital elements
Apogee altitude
447.995 km
Perigee altitude
443.438 km
Semi-major axis
6,823.853 km
Eccentricity
0.00033
Inclination
37.3818°
RAAN
337.5384°
Arg. of periapsis
351.5994°
True anomaly
8.47684°
Mean anomaly
8.4712°
Eccentric anomaly
8.47402°
Mean motion
3.85034 °/min
Orbital period
93.5 mins
BSTAR
0.00056977
Loading maneuver chart data...
Computing Atmospheric mass density...
Loading historical data...
Loading historical data...
Loading historical data...
Loading historical data...
Loading historical data...
Loading historical data...
Loading historical data...
Other satellites on launch #147 in the year 2024 (2024-08-16 UTC)

Documentation

Showing up to 5 results
|